Bookmark and Share
Track history (hours):
 

Black Star

Last reported at 2014-Apr-17 22:30 UTC. Time now 2014-Apr-18 18:22 UTC.
Position N 51°53' E 003°12'.

Length 128 m; draft 5.6 m.

Type: Ship. MMSI: 256714000.

NotesDate/timePositionNaut miles runAvg speedWind from/ knotsBaromVisibWave heightAir tempDewpointWater temp
2014-Apr-17 22:30N 51°53' E 003°12'14 2.7
2014-Apr-17 17:21N 52°01' E 002°53'1114.0
2014-Apr-17 16:33N 51°52' E 003°04'1313.2
2014-Apr-17 15:33N 51°42' E 003°18'1414.1
2014-Apr-17 14:33N 51°30' E 003°29'9 8.5
2014-Apr-17 13:32N 51°26' E 003°41'8 8.0
2014-Apr-17 12:33N 51°20' E 003°49'3 2.7
2014-Apr-17 11:31N 51°17' E 003°50'4 4.2
2014-Apr-17 10:33N 51°13' E 003°48'0 0.0
2014-Apr-17 09:08N 51°13' E 003°48'0 0.0
2014-Apr-17 08:20N 51°13' E 003°48'0 0.0
2014-Apr-17 06:23N 51°13' E 003°48'0 0.0
2014-Apr-17 05:32N 51°13' E 003°48'0 0.0
2014-Apr-17 04:23N 51°13' E 003°48'0 0.0
2014-Apr-17 03:23N 51°13' E 003°48'0 0.0
2014-Apr-17 02:26N 51°13' E 003°48'0 0.0
2014-Apr-17 01:26N 51°13' E 003°48'0 0.0
2014-Apr-17 00:11N 51°13' E 003°48'0 0.0
2014-Apr-16 23:26N 51°13' E 003°48'0 0.0
2014-Apr-16 22:14N 51°13' E 003°48'0 0.0
2014-Apr-16 21:23N 51°13' E 003°48'0 0.0
2014-Apr-16 20:32N 51°13' E 003°48'0 0.0
2014-Apr-16 19:32N 51°13' E 003°48'0 0.0
2014-Apr-16 18:08N 51°13' E 003°48'0 0.0
2014-Apr-16 17:20N 51°13' E 003°48'0 0.0
2014-Apr-16 16:08N 51°13' E 003°48'0 0.0
2014-Apr-16 13:14N 51°13' E 003°48'0 0.0
2014-Apr-16 12:33N 51°13' E 003°48'5 4.8
2014-Apr-16 11:33N 51°18' E 003°50'0 0.0
2014-Apr-16 05:11N 51°18' E 003°50'0 0.0
2014-Apr-16 04:31N 51°18' E 003°50'0 0.0
2014-Apr-16 03:09N 51°18' E 003°50'0 0.0
2014-Apr-15 15:15N 51°18' E 003°50'1 1.5
2014-Apr-15 14:33N 51°19' E 003°49'2 1.0
2014-Apr-15 12:33N 51°21' E 003°48'1010.0
2014-Apr-15 11:33N 51°25' E 003°34'1616.2
2014-Apr-15 10:34N 51°24' E 003°08'1414.1
2014-Apr-15 09:34N 51°21' E 002°46'10 9.7
2014-Apr-15 08:34N 51°22' E 002°31'19 9.4
2014-Apr-15 06:30N 51°13' E 002°03'9 9.2
2014-Apr-15 05:32N 51°09' E 001°51'18 9.1
2014-Apr-15 03:33N 50°56' E 001°30'35 8.7
2014-Apr-14 23:34N 50°30' E 000°55'10 9.8
2014-Apr-14 22:33N 50°27' E 000°40'1010.0
2014-Apr-14 21:33N 50°24' E 000°25'5012.5
2014-Apr-14 17:33N 50°10' W 000°51'1313.4
2014-Apr-14 16:34N 50°07' W 001°11'  
2014-Apr-11 09:14N 39°05' W 009°56'7711.5
2014-Apr-11 02:31N 37°49' W 009°41'4911.6
2014-Apr-10 22:19N 37°01' W 009°28'811.0
2014-Apr-10 21:33N 36°53' W 009°25'1111.3
2014-Apr-10 20:33N 36°44' W 009°17'1210.9
2014-Apr-10 19:30N 36°39' W 009°04'1311.4
2014-Apr-10 18:22N 36°33' W 008°50'911.0
2014-Apr-10 17:33N 36°24' W 008°47'1312.0
2014-Apr-10 16:29N 36°11' W 008°46'1111.7
2014-Apr-10 15:33N 36°00' W 008°46'1211.3
2014-Apr-10 14:30N 35°48' W 008°44'16511.1
2014-Apr-09 23:32N 33°03' W 008°54'  

Dump ship's entire track history

sailing weather and tide predictions

Black Star — 9HA2911 — position and weather